Regional Weather Roundup
Issued by NWS

Home | Current Version | Previous Version | Text Only | Print | Product List | Glossary Off
Versions: 1 2 3 4 5 6 7 8 9 10 11 12 13 14 15 16 17 18 19 20 21 22 23 24 25 26 27 28 29 30 31 32 33 34 35 36 37 38 39 40 41 42 43 44 45 46 47 48 49 50

000
ASUS43 KBIS 202210
RWRND

NORTH DAKOTA REGIONAL WEATHER ROUNDUP
NATIONAL WEATHER SERVICE BISMARCK ND
500 PM CDT MON APR 20 2015

NOTE: "FAIR" INDICATES FEW OR NO CLOUDS BELOW 12,000 FEET WITH NO
SIGNIFICANT WEATHER AND/OR OBSTRUCTIONS TO VISIBILITY.


NDZ001>003-009>011-017-202300-
NORTHWEST NORTH DAKOTA

CITY           SKY/WX    TMP DP  RH WIND       PRES   REMARKS
WILLISTON      MOSUNNY   53  14  21 N22G29    29.84F
MINOT          SUNNY     51   6  16 NW29G38   29.74F
MINOT AFB      SUNNY     51   8  18 N26G36    29.73F
$$

NDZ018>021-031>035-040>046-202300-
SOUTHWEST NORTH DAKOTA

CITY           SKY/WX    TMP DP  RH WIND       PRES   REMARKS
BISMARCK       SUNNY     52   2  13 NW35G45   29.75S
DICKINSON      CLOUDY    49  13  23 NW23G33   29.80S
GARRISON         N/A     53   8  16 N31G43    29.74F
HETTINGER ARPT CLOUDY    50  13  22 NW22G35   29.82S
$$

NDZ004>008-012>016-024-026-027-054-202300-
NORTHEAST NORTH DAKOTA

CITY           SKY/WX    TMP DP  RH WIND       PRES   REMARKS
GRAND FORKS    CLOUDY    38  32  79 NW28G39   29.61R
GRND FRKS AFB  LGT RAIN  36  32  85 N20G29    29.61R
DEVILS LAKE    CLOUDY    39  27  60 N30G37    29.65F
$$

NDZ022-023-025-028>030-036>039-047>053-202300-
SOUTHEAST NORTH DAKOTA

CITY           SKY/WX    TMP DP  RH WIND       PRES   REMARKS
FARGO          FLURRIES  37  34  89 N28G33    29.61R
JAMESTOWN      CLOUDY    43  24  47 NW30G39   29.66R
$$



USA.gov is the U.S. government's official web portal to all federal, state and local government web resources and services.